XIAOXIANG 2

导读

XIAOXIANG 2(潇湘二号,又称湘江新区号),是中国由天仪研究院自主研制的微小卫星,于2018年1月19日搭载长征十一号运载火箭在酒泉卫星发射中心成功发射。该卫星承担四项空间科学试验任务,包括光纤传感技术、空间软件无线电、业余无线电、光学稳像试验,对应由多所高校和科研院所参与协作研制,推动了航天技术民用化与产学研创新探索。

基本信息
目录编号:
43155
目录名称:
XIAOXIANG 2
国际标识:
2018-008A
轨道中心:
EARTH
卫星名称:
XIAOXIANG 2
卫星全名:
--
卫星状态:
已陨落 最后检测时间 2024-08-22
发射日期:
2018-01-19 UTC
国别 :
中国 (CN)
星等 :
--
轨道信息
数据来源 国际轨道数据
星历时间: 2024-08-23T10:12:50+0800
轨道信息已过期690天
半长轴: 6523.942km
偏心率: 0.0013149
轨道倾角: 97.193°
近地点辐角 268.008°
升交点赤经 292.669°
平近点角 91.972°
近地点: 137.228km
远地点: 154.386km
周期: 87.403分钟
每日圈数: 16.475463
详细信息
使用方式:
暂无